CSPL LEPA-LEPA

Flight info

Callsign CSPL
Flight time 0h 4m
Altitude 1000
Route VFR
Aircraft C130/M-SDE2E3FGRY/H

Departure

Time 2026-05-07 14:23
Airport Palma de Mallorca Airport (LEPA)

Arrival

Time 2026-05-07 14:27
Airport Palma de Mallorca Airport (LEPA)
Time Latitude Longitude Altitude Speed Heading
2026-05-07 14:17 39.54174 2.72397 33 ft 0 kts 328°
2026-05-07 14:19 39.54177 2.72393 33 ft 4 kts 308°
2026-05-07 14:19 39.54151 2.72407 33 ft 13 kts 89°
2026-05-07 14:19 39.54179 2.72513 33 ft 11 kts 62°
2026-05-07 14:19 39.54189 2.72579 33 ft 6 kts 124°
2026-05-07 14:20 39.54188 2.72610 33 ft 0 kts 60°
2026-05-07 14:20 39.54218 2.72672 33 ft 11 kts 58°
2026-05-07 14:20 39.54263 2.72767 33 ft 9 kts 58°
2026-05-07 14:21 39.54265 2.72826 33 ft 12 kts 150°
2026-05-07 14:21 39.54194 2.72901 33 ft 11 kts 140°
2026-05-07 14:21 39.54151 2.73013 33 ft 20 kts 90°
2026-05-07 14:21 39.54154 2.73201 33 ft 17 kts 85°
2026-05-07 14:22 39.54209 2.73347 33 ft 31 kts 58°
2026-05-07 14:22 39.54397 2.73745 33 ft 69 kts 59°
2026-05-07 14:22 39.54675 2.74309 163 ft 79 kts 56°
2026-05-07 14:22 39.54868 2.74700 339 ft 77 kts 62°
2026-05-07 14:23 39.55154 2.75328 570 ft 83 kts 60°
2026-05-07 14:23 39.55485 2.75972 755 ft 85 kts 56°
2026-05-07 14:23 39.55759 2.76613 1014 ft 82 kts 76°
2026-05-07 14:23 39.55530 2.77331 1116 ft 101 kts 128°
2026-05-07 14:24 39.54924 2.77793 1299 ft 105 kts 148°
2026-05-07 14:24 39.54215 2.78164 1328 ft 122 kts 171°
2026-05-07 14:24 39.53554 2.77502 1405 ft 126 kts 245°
2026-05-07 14:24 39.53201 2.76495 1389 ft 124 kts 242°
2026-05-07 14:25 39.52825 2.75500 1229 ft 124 kts 243°
2026-05-07 14:25 39.52454 2.74505 1069 ft 122 kts 240°
2026-05-07 14:25 39.52091 2.73559 1051 ft 114 kts 244°
2026-05-07 14:25 39.52061 2.72598 888 ft 108 kts 307°
2026-05-07 14:26 39.52569 2.71910 568 ft 104 kts 330°
2026-05-07 14:26 39.53078 2.71598 508 ft 60 kts 23°
2026-05-07 14:26 39.53443 2.71848 404 ft 60 kts 49°
2026-05-07 14:26 39.53722 2.72301 355 ft 67 kts 59°
2026-05-07 14:27 39.53949 2.72814 205 ft 62 kts 61°
2026-05-07 14:27 39.54167 2.73251 138 ft 60 kts 60°
2026-05-07 14:27 39.54400 2.73741 47 ft 61 kts 62°
2026-05-07 14:27 39.54574 2.74119 33 ft 38 kts 58°
2026-05-07 14:28 39.54749 2.74477 48 ft 60 kts 60°
2026-05-07 14:28 39.54988 2.74964 162 ft 71 kts 64°
2026-05-07 14:28 39.55263 2.75540 347 ft 77 kts 55°
2026-05-07 14:28 39.55539 2.76116 600 ft 74 kts 60°
2026-05-07 14:29 39.55724 2.76740 821 ft 79 kts 91°
2026-05-07 14:29 39.55348 2.77338 964 ft 102 kts 144°
2026-05-07 14:29 39.54699 2.77750 1110 ft 105 kts 143°
2026-05-07 14:29 39.54059 2.78146 1356 ft 103 kts 158°
2026-05-07 14:30 39.53236 2.77795 1149 ft 142 kts 214°
2026-05-07 14:30 39.52638 2.76819 1087 ft 134 kts 241°
2026-05-07 14:30 39.52251 2.75792 1076 ft 124 kts 242°
2026-05-07 14:30 39.51885 2.74772 973 ft 124 kts 245°
2026-05-07 14:31 39.51960 2.73776 941 ft 112 kts 315°
2026-05-07 14:31 39.52483 2.73100 724 ft 102 kts 327°
2026-05-07 14:31 39.53002 2.72630 661 ft 77 kts 346°
2026-05-07 14:31 39.53493 2.72440 561 ft 70 kts
2026-05-07 14:32 39.53865 2.72644 380 ft 56 kts 55°
2026-05-07 14:32 39.54051 2.73017 250 ft 47 kts 62°
2026-05-07 14:32 39.54241 2.73414 154 ft 57 kts 59°
2026-05-07 14:32 39.54446 2.73843 38 ft 49 kts 60°
2026-05-07 14:33 39.54588 2.74148 33 ft 40 kts 59°
2026-05-07 14:33 39.54792 2.74565 152 ft 56 kts 59°
2026-05-07 14:33 39.55018 2.74998 326 ft 64 kts 61°
2026-05-07 14:33 39.55267 2.75563 483 ft 75 kts 61°
2026-05-07 14:34 39.55551 2.76169 687 ft 78 kts 56°
2026-05-07 14:34 39.55855 2.76758 918 ft 78 kts 56°
2026-05-07 14:34 39.56163 2.77363 1093 ft 83 kts 71°
2026-05-07 14:34 39.56015 2.78027 1286 ft 93 kts 150°
2026-05-07 14:35 39.55354 2.78352 1244 ft 112 kts 151°
2026-05-07 14:35 39.54577 2.78502 1299 ft 127 kts 205°
2026-05-07 14:35 39.54036 2.77559 1324 ft 136 kts 240°
2026-05-07 14:35 39.53583 2.76458 1347 ft 139 kts 242°
2026-05-07 14:36 39.53160 2.75328 1355 ft 137 kts 243°
2026-05-07 14:36 39.52778 2.74298 1187 ft 122 kts 245°
2026-05-07 14:36 39.52479 2.73241 940 ft 130 kts 270°
2026-05-07 14:36 39.52747 2.72289 808 ft 100 kts 316°
2026-05-07 14:37 39.53222 2.71917 709 ft 71 kts
2026-05-07 14:37 39.53935 2.72781 301 ft 73 kts 64°
2026-05-07 14:37 39.54197 2.73333 127 ft 66 kts 63°
2026-05-07 14:38 39.54398 2.73747 51 ft 43 kts 61°
2026-05-07 14:38 39.54537 2.74037 33 ft 44 kts 58°
2026-05-07 14:38 39.54750 2.74466 148 ft 60 kts 58°
2026-05-07 14:38 39.54980 2.74948 325 ft 67 kts 59°
2026-05-07 14:39 39.55247 2.75468 572 ft 67 kts 59°
2026-05-07 14:39 39.55502 2.75997 758 ft 74 kts 56°
2026-05-07 14:39 39.55442 2.76545 888 ft 98 kts 156°
2026-05-07 14:39 39.54811 2.76948 979 ft 106 kts 143°
2026-05-07 14:40 39.54164 2.76867 1132 ft 119 kts 246°
2026-05-07 14:40 39.53795 2.75914 1231 ft 115 kts 243°
2026-05-07 14:40 39.53383 2.74876 1096 ft 140 kts 242°
2026-05-07 14:40 39.52926 2.73694 896 ft 152 kts 243°
2026-05-07 14:41 39.52862 2.72546 714 ft 119 kts 320°
2026-05-07 14:41 39.53406 2.72264 704 ft 67 kts 27°
2026-05-07 14:41 39.53815 2.72566 468 ft 70 kts 49°
2026-05-07 14:41 39.54111 2.73096 475 ft 81 kts 65°
2026-05-07 14:42 39.54417 2.73791 518 ft 96 kts 60°
2026-05-07 14:42 39.54804 2.74569 635 ft 106 kts 62°
2026-05-07 14:42 39.55182 2.75391 768 ft 105 kts 61°
2026-05-07 14:42 39.55091 2.76119 772 ft 113 kts 153°
2026-05-07 14:43 39.54354 2.75983 780 ft 125 kts 228°
2026-05-07 14:43 39.53927 2.75013 798 ft 126 kts 243°
2026-05-07 14:43 39.53518 2.73956 693 ft 133 kts 245°
2026-05-07 14:43 39.53323 2.72927 544 ft 96 kts 302°
2026-05-07 14:44 39.53750 2.72648 371 ft 63 kts 33°
2026-05-07 14:44 39.54093 2.73091 221 ft 74 kts 63°
2026-05-07 14:44 39.54335 2.73601 65 ft 58 kts 67°
2026-05-07 14:44 39.54512 2.73988 33 ft 39 kts 57°
2026-05-07 14:45 39.54622 2.74233 33 ft 25 kts 58°
2026-05-07 14:45 39.54723 2.74445 33 ft 23 kts 56°
2026-05-07 14:45 39.54819 2.74641 33 ft 36 kts 55°
2026-05-07 14:45 39.54967 2.74950 33 ft 37 kts 60°
2026-05-07 14:46 39.55163 2.75369 33 ft 58 kts 58°
2026-05-07 14:46 39.55346 2.75751 33 ft 43 kts 59°
2026-05-07 14:46 39.55482 2.76039 33 ft 32 kts 56°
2026-05-07 14:46 39.55611 2.76058 33 ft 18 kts 323°
2026-05-07 14:47 39.55638 2.75924 33 ft 29 kts 239°
2026-05-07 14:47 39.55465 2.75557 33 ft 52 kts 237°
2026-05-07 14:47 39.55292 2.75191 33 ft 46 kts 240°
2026-05-07 14:47 39.55103 2.74790 33 ft 58 kts 238°
2026-05-07 14:48 39.54874 2.74309 33 ft 63 kts 239°
2026-05-07 14:48 39.54670 2.73874 33 ft 51 kts 244°
2026-05-07 14:48 39.54500 2.73519 33 ft 42 kts 240°
2026-05-07 14:48 39.54360 2.73221 33 ft 36 kts 239°
2026-05-07 14:49 39.54239 2.72966 33 ft 27 kts 241°
2026-05-07 14:49 39.54268 2.72825 33 ft 17 kts 322°
2026-05-07 14:49 39.54239 2.72718 33 ft 12 kts 238°
2026-05-07 14:49 39.54260 2.72699 33 ft 4 kts 349°
2026-05-07 14:50 39.54270 2.72693 33 ft 0 kts 331°